Left ArrowRight Arrow

Hourly Observations for June 17, 2024

Temp ( °F °C ) Dew Point ( °F °C ) Humidity (%) Winds ( mph kmh ) Pressure ( in mb ) Visibility ( mi km ) Precip ( " mm )
12:53 am 00:53 Clear 77 25 71 21.7 82 82 Calm 30.05 1018 10 16 0.00 0.00
1:53 am 01:53 Clear 75 23.9 71 21.7 88 88 Calm 30.06 1018 10 16 0.00 0.00
2:53 am 02:53 Clear 74 23.3 71 21.7 91 91 SE 3 6 30.06 1018 10 16 0.00 0.00
3:53 am 03:53 Clear 73 22.8 70 21.1 90 90 Calm 30.06 1018 9 14 0.00 0.00
4:53 am 04:53 Mostly Clear 74 23.3 70 21.1 87 87 Calm 30.06 1018 10 16 0.00 0.00
5:53 am 05:53 Clear 71 21.7 69 20.6 93 93 Calm 30.07 1018 10 16 0.00 0.00
6:53 am 06:53 Sunny 73 22.8 69 20.6 87 87 Calm 30.09 1019 10 16 0.00 0.00
7:53 am 07:53 Sunny 75 23.9 69 20.6 82 82 Calm 30.10 1019 10 16 0.01 0.13
8:53 am 08:53 Sunny 79 26.1 70 21.1 74 74 S 5 7 30.12 1020 10 16 0.00 0.00
9:53 am 09:53 Sunny 80 26.7 71 21.7 74 74 SSW 3 6 30.13 1020 10 16 0.00 0.00
10:53 am 10:53 Sunny 84 28.9 70 21.1 63 63 SSW 7 11 30.14 1021 10 16 0.00 0.00
11:53 am 11:53 Sunny 86 30 71 21.7 61 61 WSW 7 11 30.14 1021 10 16 0.00 0.00
12:53 pm 12:53 Sunny N/A N/A N/A W 10 17 30.24 1024 10 16 0.00 0.00
1:53 pm 13:53 undefined 89 31.7 71 21.7 56 56 WSW 10 17 30.11 1020 N/A 0.00 0.00
2:53 pm 14:53 Sunny 89 31.7 69 20.6 52 52 VRB 6 9 30.09 1019 N/A 0.00 0.00
3:53 pm 15:53 Mostly Sunny 89 31.7 70 21.1 54 54 S 6 9 30.07 1018 N/A 0.00 0.00
4:53 pm 16:53 Mostly Sunny 90 32.2 69 20.6 50 50 VRB 5 7 30.06 1018 10 16 0.00 0.00
5:53 pm 17:53 Sunny 89 31.7 68 20 50 50 VRB 5 7 30.04 1017 10 16 0.00 0.00
6:53 pm 18:53 Sunny 89 31.7 68 20 50 50 SSW 8 13 30.04 1017 10 16 0.00 0.00
7:35 pm 19:35 Sunny with Nearby Thunderstorms 88 31.1 68 20 52 52 S 7 11 30.02 1017 10 16 0.00 0.00
7:53 pm 19:53 Sunny with Nearby Thunderstorms 88 31.1 69 20.6 54 54 SSE 5 7 30.05 1018 10 16 0.00 0.00
8:37 pm 20:37 Partly Cloudy 80 26.7 68 20 67 67 E 6 9 30.05 1018 10 16 0.00 0.00
8:53 pm 20:53 Mostly Sunny 80 26.7 68 20 67 67 Calm 30.06 1018 10 16 0.00 0.00
9:53 pm 21:53 Clear 78 25.6 68 20 71 71 E 3 6 30.09 1019 10 16 0.00 0.00
10:53 pm 22:53 Clear 76 24.4 68 20 77 77 Calm 30.10 1019 10 16 0.00 0.00
11:53 pm 23:53 Clear 76 24.4 68 20 77 77 SE 3 6 30.10 1019 10 16 0.00 0.00

Powered by Vaisala Xweather